This is the latest recevied weather packets stored in our database for station/object KC7WRB. If no packets are shown the sender has not sent any weather packets the latest 10 day(s).
| Time | Temp. | Humidity | Pressure | Rain* | Wind** | Luminosity | Snow |
|---|---|---|---|---|---|---|---|
| 1778380856 | 23.89° C | 16% | 1017.7 hPa | 0 mm | - | 13 W/m² | - |
| 1778380553 | 23.89° C | 15% | 1017.7 hPa | 0 mm | - | 18 W/m² | - |
| 1778380250 | 24.44° C | 15% | 1017.8 hPa | 0 mm | - | 22 W/m² | - |
| 1778379950 | 24.44° C | 15% | 1017.5 hPa | 0 mm | - | 27 W/m² | - |
| 1778379650 | 24.44° C | 15% | 1017.6 hPa | 0 mm | - | 31 W/m² | - |
| 1778379346 | 25° C | 14% | 1017.7 hPa | 0 mm | - | 36 W/m² | - |
| 1778379044 | 25° C | 14% | 1017.5 hPa | 0 mm | - | 43 W/m² | - |
| 1778378738 | 25.56° C | 14% | 1017.7 hPa | 0 mm | - | 51 W/m² | - |
| 1778378434 | 25.56° C | 13% | 1017.8 hPa | 0 mm | - | 59 W/m² | - |
| 1778378130 | 25.56° C | 12% | 1017.8 hPa | 0 mm | - | 72 W/m² | - |
| 1778377826 | 26.11° C | 12% | 1017.9 hPa | 0 mm | - | 82 W/m² | - |
| 1778377523 | 26.11° C | 12% | 1017.7 hPa | 0 mm | - | 97 W/m² | - |
| 1778377220 | 25.56° C | 11% | 1017.6 hPa | 0 mm | - | 111 W/m² | - |
| 1778376914 | 26.11° C | 12% | 1017.7 hPa | 0 mm | - | 125 W/m² | - |
| 1778376610 | 26.11° C | 11% | 1017.5 hPa | 0 mm | - | 142 W/m² | - |
| 1778376304 | 26.67° C | 12% | 1017.7 hPa | 0 mm | - | 159 W/m² | - |
| 1778376001 | 26.67° C | 11% | 1017.5 hPa | 0 mm | - | 175 W/m² | - |
| 1778375695 | 26.67° C | 12% | 1017.6 hPa | 0 mm | - | 180 W/m² | - |
| 1778375391 | 26.67° C | 11% | 1017.6 hPa | 0 mm | - | 193 W/m² | - |
| 1778375089 | 26.67° C | 12% | 1017.6 hPa | 0 mm | - | 213 W/m² | - |
| 1778374786 | 26.67° C | 11% | 1017.5 hPa | 0 mm | - | 231 W/m² | - |
| 1778374481 | 26.67° C | 12% | 1017.7 hPa | 0 mm | - | 249 W/m² | - |
| 1778374179 | 26.67° C | 12% | 1017.5 hPa | 0 mm | - | 272 W/m² | - |
| 1778373876 | 26.67° C | 12% | 1017.7 hPa | 0 mm | - | 290 W/m² | - |
| 1778373574 | 26.67° C | 13% | 1017.5 hPa | 0 mm | - | 310 W/m² | - |
* Rain latest hour (hover to see other rain measurements)
** Current wind speed in m/s (hover to see current wind gust speed)